Regional Weather Roundup
Issued by NWS

Home | Current Version | Previous Version | Text Only | Print | Product List | Glossary On
Versions: 1 2 3 4 5 6 7 8 9 10 11 12 13 14 15 16 17 18 19 20 21 22 23 24 25 26 27 28 29 30 31 32 33 34 35 36 37 38 39 40 41 42 43 44 45 46 47 48 49 50
000
ASUS43 KMPX 040210
RWRMN
WEATHER ROUNDUP FOR MINNESOTA
NATIONAL WEATHER SERVICE TWIN CITIES/CHANHASSEN MN
900 PM CDT FRI JUL 03 2015


NOTE: "FAIR" INDICATES FEW OR NO CLOUDS BELOW 12,000 FEET WITH NO
SIGNIFICANT WEATHER AND/OR OBSTRUCTIONS TO VISIBILITY. N/A MEANS
CURRENT SKY AND/OR WEATHER CONDITIONS ARE NOT AVAILABLE.

MNZ060>063-068>070-040300-
   Twin Cities Metro

CITY           SKY/WX    TMP DP  RH WIND       PRES   REMARKS
TWIN CITIES    MOCLDY    76  58  53 SW5       29.90S
ST PAUL        CLEAR     73  59  61 SW6       29.90S
CRYSTAL        PTCLDY    76  58  53 SW5       29.88F
LAKEVILLE      PTCLDY    66  59  77 CALM      29.91S
EDEN PRAIRIE   PTCLDY    72  60  66 SW5       29.90S
SOUTH ST PAUL  CLEAR     73  58  59 SW3       29.90S
LAKE ELMO      FAIR      72  61  68 SW6       29.90F
$$
MNZ001>005-007-008-013>017-022>024-027-028-040300-
   Northwest Minnesota

CITY           SKY/WX    TMP DP  RH WIND       PRES   REMARKS
BEMIDJI        CLEAR     70  60  71 CALM      29.92R
HALLOCK        PTCLDY    72  66  83 CALM      29.88F HAZE
ROSEAU         PTCLDY    72  64  78 CALM      29.90S HAZE
WARROAD        PTCLDY    72  61  68 CALM      29.90F
THIEF RVR FALL CLEAR     72  63  73 NW3       29.91S
CROOKSTON      CLEAR     73  61  64 CALM      29.90S HAZE
FOSSTON        PTCLDY    66  57  72 CALM      29.92S HAZE
DETROIT LAKES  PTCLDY    73  61  64 CALM      29.93S HAZE
MOORHEAD       CLEAR     73  64  73 CALM      29.90S HAZE
PARK RAPIDS    CLOUDY    70  62  76 NW3       29.92S HAZE
MAHNOMEN       MOCLDY    72  61  68 CALM      29.91S HAZE
$$
MNZ006-009>011-018-025>026-040300-
   North Central Minnesota

CITY           SKY/WX    TMP DP  RH WIND       PRES   REMARKS
BAUDETTE       CLEAR     69  59  70 CALM      29.90S
FLAG ISLAND    PTCLDY    72  61  68 SW6       29.88F
INTL FALLS     CLEAR     66  58  75 CALM      29.90S
WASKISH        CLEAR     70  55  60 CALM      29.91R
BIG FORK       PTCLDY    66  61  82 CALM      29.91S
LONGVILLE      CLEAR     66  63  88 CALM      29.91S FOG
GRAND RAPIDS   CLEAR     66  55  68 CALM      29.91S
CRANE LAKE     CLEAR     70  54  56 N2        29.92R
ORR            CLEAR     64  54  68 CALM      29.89R
COOK           CLEAR     68  55  64 CALM      29.91R
WALKER         FAIR      67  61  80 CALM      29.91S
$$
MNZ012-019>021-037-040300-
   Northeast Minnesota

CITY           SKY/WX    TMP DP  RH WIND       PRES   REMARKS
DULUTH         PTCLDY    72  57  59 N5        29.89R
ELY            CLEAR     70  52  52 CALM      29.90R
HIBBING        PTCLDY    65  59  81 NW3       29.90R
DULUTH HARBOR  PTCLDY    75  61  60 NW5       29.86S
TWO HARBORS    PTCLDY    72  61  68 NW3       29.86R
SILVER BAY     CLEAR     66  61  82 CALM      29.86R
GRAND MARAIS     N/A     58  51  78 CALM      29.85R
G MARAIS ARPRT PTCLDY    63  52  67 N5        29.92R
$$
MNZ029>031-032-039>041-046>048-054>057-064-040300-
   West Central Minnesota

CITY           SKY/WX    TMP DP  RH WIND       PRES   REMARKS
FERGUS FALLS   PTCLDY    75  63  64 CALM      29.90S HAZE
WHEATON        MOCLDY    72  64  78 CALM      29.92S HAZE
MORRIS         MOCLDY    73  66  78 CALM      29.90S HAZE
ALEXANDRIA     CLOUDY    73  64  73 NW3       29.93S HAZE
ELBOW LAKE     FAIR      74  65  73 CALM      29.91S HAZE
WADENA         CLEAR     70  63  78 CALM      29.92S HAZE
GLENWOOD       PTCLDY    72  64  78 CALM      29.92S HAZE
APPLETON       MOCLDY    75  66  73 CALM      29.90S HAZE
BENSON         MOCLDY    72  64  78 CALM      29.90S HAZE
ORTONVILLE     MOCLDY    77  64  65 CALM      29.91S HAZE
MADISON        MOCLDY    73  66  78 E3        29.90F HAZE
WILLMAR        FAIR      75  66  73 CALM      29.92S
$$
MNZ033>034-036-042>043-049>051-058-059-040300-
   Central Minnesota

CITY           SKY/WX    TMP DP  RH WIND       PRES   REMARKS
ST CLOUD       CLOUDY    70  65  84 NE3       29.89S HAZE
SAUK CENTRE    FAIR      73  63  69 CALM      29.91S HAZE
PAYNESVILLE    PTCLDY    69  65  88 CALM      29.91S FOG
AITKIN         CLEAR     68  61  77 CALM      29.89S HAZE
PINE RIVER       N/A     68  61  77 CALM      29.95R HAZE
BRAINERD       CLOUDY    73  60  63 N3        29.91S HAZE
STAPLES        PTCLDY    70  63  78 CALM      29.91S HAZE
LONG PRAIRIE   CLOUDY    72  64  78 CALM      29.92S HAZE
LITTLE FALLS     N/A     70  63  78 CALM      29.90S HAZE
LITCHFIELD     MOCLDY    73  66  78 CALM      29.91S
BUFFALO        PTCLDY    73  62  68 SW3       29.90F
MAPLE LAKE     PTCLDY    73  65  77 CALM      29.91S
$$
MNZ037-044-045-052-053-040300-
   East Central Minnesota

CITY           SKY/WX    TMP DP  RH WIND       PRES   REMARKS
PRINCETON      CLEAR     72  66  83 CALM      29.89S
MORA           CLEAR     70  63  78 CALM      29.90F HAZE
CAMBRIDGE      CLEAR     75  63  64 CALM      29.88S
RUSH CITY      CLEAR     70  64  81 CALM      29.89S
MOOSE LAKE     CLEAR     70  61  73 NW3       29.86F HAZE
HINCKLEY       FAIR      72  64  78 W3        29.88F HAZE
CLOQUET        PTCLDY    72  55  56 NW5       29.89S
MCGREGOR       CLEAR     70  61  73 CALM      29.90S
$$
MNZ071>073-080-081-089-090-097-098-040300-
   Southwest Minnesota

CITY           SKY/WX    TMP DP  RH WIND       PRES   REMARKS
MONTEVIDEO     MOCLDY    75  66  73 CALM      29.91S
GRANITE FALLS  MOCLDY    75  65  70 CALM      29.91S
CANBY          MOCLDY    75  67  76 N3        29.91F
MARSHALL       MOCLDY    75  64  69 S5        29.90S
REDWOOD FALLS  PTCLDY    74  64  71 S5        29.90F
OLIVIA         PTCLDY    72  63  73 S3        29.91S
PIPESTONE      PTCLDY    72  64  78 SW5       29.95S
WINDOM         PTCLDY    73  61  64 CALM      29.94S
WORTHINGTON    PTCLDY    70  59  68 SW6       29.95S
JACKSON        PTCLDY    72  61  68 SW5       29.95F
TRACY          PTCLDY    74  67  77 SW3       29.92S
SLAYTON        MOCLDY    72  65  79 CALM      29.95S
$$
MNZ065>067-074>077-082>085-091>093-040300-
   South Central Minnesota

CITY           SKY/WX    TMP DP  RH WIND       PRES   REMARKS
MANKATO        PTCLDY    73  57  56 CALM      29.92S
NEW ULM        PTCLDY    72  61  68 CALM      29.92S
ST JAMES       PTCLDY    72  64  78 CALM      29.93S
FAIRMONT       CLEAR     72  54  53 CALM      29.93S
GLENCOE        PTCLDY    73  64  73 CALM      29.91S
FARIBAULT      PTCLDY    66  61  82 CALM      29.93S
OWATONNA       PTCLDY    66  57  72 CALM      29.94R
WASECA         PTCLDY    68  59  73 CALM      29.94S
ALBERT LEA     PTCLDY    70  55  60 CALM      29.94S
$$
MNZ078>079-086>088-094>096-040300-
   Southeast Minnesota

CITY           SKY/WX    TMP DP  RH WIND       PRES   REMARKS
ROCHESTER      PTCLDY    66  57  72 SW6       29.94S
RED WING       CLEAR     68  61  77 CALM      29.90S
STANTON        PTCLDY    68  61  77 CALM      29.91S
DODGE CENTER   PTCLDY    70  57  64 CALM      29.94S
WINONA         CLEAR     70  59  68 CALM      29.91F
AUSTIN         PTCLDY    70  55  60 CALM      29.94S
PRESTON        PTCLDY    67  57  69 W5        29.94S
$$
ABBREVIATIONS USED IN REMARKS
   TC - TEMPERATURES IN CELSIUS
  WCI - WIND CHILL INDEX
   HX - HEAT INDEX
  VSB - VISIBILITY
$$


USA.gov is the U.S. government's official web portal to all federal, state and local government web resources and services.